This demonstration page uses our WeatherBlox Daily Observations layout. Learn more.

Left ArrowRight Arrow

39.01783, -85.05884

Hourly Observations for July 1, 2022

Temp ( °F °C ) Dew Point ( °F °C ) Humidity (%) Winds ( mph kmh ) Pressure ( in mb ) Visibility ( mi km ) Precip ( " mm )
12:52 am 00:52 Mostly Cloudy 78 25.6 68 20 71 71 SSW 7 11 30.03 1017 10 16 0.00 0.00
1:52 am 01:52 Partly Cloudy 78 25.6 70 21.1 76 76 SSW 7 11 30.02 1017 10 16 0.00 0.00
2:52 am 02:52 Mostly Cloudy 78 25.6 70 21.1 76 76 WSW 8 13 30.01 1016 10 16 0.00 0.00
3:52 am 03:52 Partly Cloudy 76 24.4 70 21.1 82 82 SSW 6 9 30.01 1016 10 16 0.00 0.00
4:52 am 04:52 Partly Cloudy 75 23.9 71 21.7 88 88 SSW 8 13 30.01 1016 10 16 0.00 0.00
5:52 am 05:52 Mostly Clear 74 23.3 71 21.7 91 91 SSW 7 11 30.01 1016 10 16 0.00 0.00
6:52 am 06:52 Mostly Sunny 73 22.8 71 21.7 94 94 SSW 8 13 30.03 1017 9 14 0.00 0.00
7:52 am 07:52 Mostly Sunny 77 25 72 22.2 85 85 SSW 12 19 30.02 1017 8 13 0.00 0.00
8:52 am 08:52 Mostly Sunny 80 26.7 73 22.8 79 79 SW 8 13 30.03 1017 9 14 0.00 0.00
9:52 am 09:52 Partly Cloudy 83 28.3 73 22.8 72 72 WSW 9 15 30.03 1017 9 14 0.00 0.00
10:52 am 10:52 Mostly Cloudy 86 30 74 23.3 67 67 WSW 9 15 30.03 1017 10 16 0.00 0.00
11:52 am 11:52 Mostly Cloudy 88 31.1 74 23.3 63 63 WSW 10 17 30.02 1017 10 16 0.00 0.00
12:52 pm 12:52 Mostly Cloudy 90 32.2 74 23.3 59 59 WSW 12 19 30.01 1016 10 16 0.00 0.00
1:52 pm 13:52 Mostly Cloudy 88 31.1 73 22.8 61 61 W 12 19 29.99 1016 10 16 0.00 0.00
2:52 pm 14:52 Mostly Cloudy 90 32.2 73 22.8 58 58 WSW 12 19 29.96 1015 10 16 0.00 0.00
3:52 pm 15:52 Mostly Cloudy 88 31.1 73 22.8 61 61 WSW 10 17 29.96 1014 10 16 0.00 0.00
4:52 pm 16:52 Mostly Cloudy 87 30.6 73 22.8 63 63 SW 9 15 29.94 1014 10 16 0.00 0.00
5:52 pm 17:52 Mostly Cloudy 89 31.7 73 22.8 59 59 WSW 8 13 29.94 1014 10 16 0.00 0.00
6:52 pm 18:52 Mostly Cloudy 88 31.1 74 23.3 63 63 SW 8 13 29.93 1014 10 16 0.00 0.00
7:52 pm 19:52 Cloudy 85 29.4 74 23.3 70 70 WSW 13 20 29.93 1013 10 16 0.00 0.00
8:52 pm 20:52 Mostly Cloudy 82 27.8 73 22.8 74 74 W 6 9 29.93 1014 10 16 0.00 0.00
9:52 pm 21:52 Mostly Cloudy 80 26.7 72 22.2 76 76 W 5 7 29.94 1014 10 16 0.00 0.00
10:52 pm 22:52 Mostly Cloudy 79 26.1 67 19.4 67 67 N 7 11 29.95 1014 10 16 0.00 0.00
11:52 pm 23:52 Partly Cloudy 78 25.6 67 19.4 69 69 Calm 29.94 1014 10 16 0.00 0.00

Powered by AerisWeather